Orbital Elements at Epoch 2459000.5 (2020-May-31.0) TDB
Reference: JPL 21 (heliocentric ecliptic J2000)
Element | Value | Uncertainty (1-sigma) | Units |
e | .2055383751895221 | 5.0303e-08 | |
a | 2.683727250806765 | 1.3591e-08 | au |
q | 2.132118312224099 | 1.3174e-07 | au |
i | 13.95104555272199 | 5.7438e-06 | deg |
node | 80.6916931647702 | 1.982e-05 | deg |
peri | 105.618741543109 | 2.4895e-05 | deg |
M | 29.64015156336631 | 1.2989e-05 | deg |
tp | 2458868.284031607936 (2020-Jan-19.78403161) | 5.7734e-05 | TDB |
period | 1605.853752784829 4.40 | 1.2199e-05 3.34e-08 | d yr |
n | .2241798167334339 | 1.703e-09 | deg/d |
Q | 3.235336189389431 | 1.6385e-08 | au |
|
| | Orbit Determination Parameters
Additional Information
|